Daytona Beach International Airport
KDAB : rendu visible

Aérodrome :











RETROUVEZ-NOUS SUR...

 
LOGIN :

S'inscrire | Disclaimer

   EN    FR    IT 

 









Légende :    VFR   VFR Marginal   IFR   IFR Intensif   IFR Très Intensif
Visi : 
Plafond : 
>= 8 km
>= 3000ft
5 à 8 km
1000 à 3000 ft
1500m à 5 km
500 à 1000 ft
800 à 1500m
200 à 500 ft
< 800m
< 200 ft
Symboles :   Orages  Brouillard  Fortes neiges  Fortes précipitations  Vent > 20 kt






- Altitude de l'aérodrome : 34 ft
- Code IATA : DAB


KDAB - Daytona Beach International

DERNIER METAR :
  • 021553Z 02005KT 10SM FEW050 FEW250 21/09 A3005 RMK AO2 SLP174 T02110094

METARs EXPIRÉS :
  • 021453Z 04007KT 10SM FEW046 FEW240 21/09 A3005 RMK AO2 SLP174 T02110094 51011
  • 021353Z 33005KT 10SM FEW040 FEW200 19/11 A3004 RMK AO2 SLP170 T01940106

TAF KDAB
Valide du 02 à 12h jusqu'au 03 à 12h UTC


021138Z 0212/0312 34003KT P6SM FEW035
FM021500 04010KT P6SM FEW040 FEW250
FM030100 VRB03KT P6SM SCT250



MET'MAP, la Météo Aéronautique d'un coup d'oeil ! - Copyright ORBIFLY Décembre 2007 - Disclaimer

ORBIFLY MET'MAP TEAM :

Programmation & Développement : Alexandra Zaïnal
Sur une idée originale de : Baudouin d'Aumeries
Assistance à la programmation : Marc-Olivier Méhu
Soutien technique & logistique : Manuel Goepfert

Contact : metmap@orbifly.com




SOURCES & CREDITS :

   NOAA       Earth
Advisory